Aérodrome :
LOGIN :

S'inscrire | Disclaimer

   EN    FR    IT 

 










Légende :    VFR   VFR Marginal   IFR   IFR Intensif   IFR Très Intensif
Visi : 
Plafond : 
>= 8 km
>= 3000ft
5 à 8 km
1000 à 3000 ft
1500m à 5 km
500 à 1000 ft
800 à 1500m
200 à 500 ft
< 800m
< 200 ft
Symboles :   Orages  Brouillard  Fortes neiges  Fortes précipitations  Vent > 20 kt
SIGMETs :   Divers  Orages  Givrage  Turbulence  Onde Orograph.  Cendres Volcan.







- Altitude de l'aérodrome : 235 ft
- Code IATA : BZG


EPBY - Bydgoszcz

DERNIER METAR :
  • 211100Z 08011KT 050V110 CAVOK 22/04 Q1023

METARs EXPIRÉS :
  • 211030Z 08013KT 050V110 CAVOK 21/04 Q1024
  • 211000Z 08012KT 060V140 CAVOK 21/04 Q1024
  • 210930Z 08012KT CAVOK 21/04 Q1024
  • 210900Z 10013KT CAVOK 20/05 Q1025
  • 210830Z 09011KT 040V120 CAVOK 19/06 Q1025

TAF TAF EPBY
Valide du 21 à 06h jusqu'au 22 à 06h UTC


210530Z 2106/2206 05006KT CAVOK
BECMG 2108/2110 11010KT
Pas de NOTAMs connus pour ce terrain.



MET'MAP, la Météo Aéronautique d'un coup d'oeil ! - Copyright ORBIFLY Décembre 2007 - Disclaimer

ORBIFLY MET'MAP TEAM :

Programmation & Développement : Alexandra Zaïnal
Conception & Développement : Baudouin d'Aumeries
Co-Programmation & Développement : Marc-Olivier Méhu
Soutien technique & logistique : Manuel Goepfert

Contact : metmap@orbifly.com




SOURCES & CREDITS :

   NOAA